When you browse on this site, cookies collect data to enhance your experience and personalize the content and advertising you see.
Visit our Privacy Policy to learn more. By continuing to use the site, you agree to this use of cookies and data.
  • En España
  • Lista de países
  • Para 7 días
  • Temperatura del agua
  • El tiempo en el mapa
  • Informadores
  • user-avatar
    Iniciar sesión

    Tiempo cada hora Dzhezkazgan

    Hoy, 30 Mayo, Sábado

    Tiempo Temperatura Precipitaciones Viento Presión Humedad
    00:00 +26°C° 0 mm 5 mps 740 mmHg 16%
    01:00 +25°C° 0 mm 5 mps 740 mmHg 16%
    02:00 +25°C° 0 mm 5 mps 740 mmHg 17%
    03:00 +23°C° 0 mm 5 mps 740 mmHg 18%
    04:00 +23°C° 0 mm 5 mps 739 mmHg 18%
    05:00 +26°C° 0 mm 6 mps 740 mmHg 16%
    06:00 +28°C° 0 mm 7 mps 740 mmHg 14%
    07:00 +32°C° 0 mm 8 mps 741 mmHg 12%
    08:00 +33°C° 0 mm 8 mps 741 mmHg 12%
    09:00 +34°C° 0 mm 9 mps 741 mmHg 12%
    10:00 +37°C° 0 mm 10 mps 741 mmHg 11%
    11:00 +38°C° 0 mm 9 mps 741 mmHg 11%
    12:00 +39°C° 0 mm 9 mps 741 mmHg 11%
    13:00 +40°C° 0 mm 8 mps 741 mmHg 11%
    14:00 +39°C° 0 mm 8 mps 740 mmHg 12%
    15:00 +39°C° 0 mm 8 mps 740 mmHg 12%
    16:00 +39°C° 0 mm 8 mps 740 mmHg 12%
    17:00 +38°C° 0 mm 7 mps 740 mmHg 13%
    18:00 +35°C° 0 mm 6 mps 740 mmHg 14%
    19:00 +34°C° 0 mm 5 mps 740 mmHg 15%
    20:00 +33°C° 0 mm 4 mps 741 mmHg 16%
    21:00 +32°C° 0 mm 4 mps 741 mmHg 16%
    22:00 +30°C° 0 mm 4 mps 741 mmHg 17%
    23:00 +30°C° 0 mm 4 mps 741 mmHg 17%

    Mañana, 31 Mayo, Domingo

    Tiempo Temperatura Precipitaciones Viento Presión Humedad
    00:00 +29°C° 0 mm 4 mps 741 mmHg 18%
    01:00 +29°C° 0 mm 4 mps 741 mmHg 19%
    02:00 +28°C° 0 mm 4 mps 740 mmHg 20%
    03:00 +28°C° 0 mm 4 mps 740 mmHg 21%
    04:00 +28°C° 0 mm 4 mps 740 mmHg 22%
    05:00 +30°C° 0 mm 5 mps 741 mmHg 20%
    06:00 +32°C° 0 mm 6 mps 741 mmHg 19%
    07:00 +34°C° 0 mm 7 mps 741 mmHg 17%
    08:00 +35°C° 0 mm 8 mps 741 mmHg 16%
    09:00 +38°C° 0 mm 9 mps 741 mmHg 15%
    10:00 +39°C° 0 mm 9 mps 741 mmHg 14%
    11:00 +39°C° 0 mm 9 mps 741 mmHg 13%
    12:00 +40°C° 0 mm 9 mps 740 mmHg 12%
    13:00 +42°C° 0 mm 9 mps 740 mmHg 11%
    14:00 +41°C° 0 mm 8 mps 740 mmHg 10%
    15:00 +41°C° 0 mm 7 mps 739 mmHg 10%
    16:00 +41°C° 0 mm 7 mps 739 mmHg 10%
    17:00 +39°C° 0 mm 6 mps 739 mmHg 11%
    18:00 +37°C° 0 mm 5 mps 739 mmHg 12%
    19:00 +35°C° 0 mm 4 mps 739 mmHg 13%
    20:00 +34°C° 0 mm 4 mps 739 mmHg 14%
    21:00 +34°C° 0 mm 4 mps 739 mmHg 14%
    22:00 +33°C° 0 mm 4 mps 739 mmHg 14%
    23:00 +32°C° 0 mm 4 mps 739 mmHg 15%

    Pasado mañana, 1 Junio, Lunes

    Tiempo Temperatura Precipitaciones Viento Presión Humedad
    00:00 +31°C° 0 mm 3 mps 739 mmHg 15%
    01:00 +30°C° 0 mm 3 mps 739 mmHg 16%
    02:00 +30°C° 0 mm 3 mps 739 mmHg 17%
    03:00 +29°C° 0 mm 3 mps 739 mmHg 17%
    04:00 +29°C° 0 mm 3 mps 739 mmHg 18%
    05:00 +31°C° 0 mm 3 mps 739 mmHg 17%
    06:00 +34°C° 0 mm 2 mps 740 mmHg 15%
    07:00 +37°C° 0 mm 2 mps 740 mmHg 13%
    08:00 +38°C° 0 mm 3 mps 740 mmHg 12%
    09:00 +39°C° 0 mm 3 mps 740 mmHg 11%
    10:00 +41°C° 0 mm 4 mps 740 mmHg 10%
    11:00 +42°C° 0 mm 4 mps 740 mmHg 9%
    12:00 +42°C° 0 mm 5 mps 739 mmHg 9%
    13:00 +42°C° 0 mm 5 mps 739 mmHg 9%
    14:00 +42°C° 0 mm 5 mps 739 mmHg 9%
    15:00 +42°C° 0 mm 5 mps 739 mmHg 9%
    16:00 +42°C° 0 mm 5 mps 738 mmHg 8%
    17:00 +40°C° 0 mm 4 mps 738 mmHg 10%
    18:00 +38°C° 0 mm 4 mps 738 mmHg 11%
    19:00 +36°C° 0 mm 3 mps 738 mmHg 12%
    20:00 +35°C° 0 mm 3 mps 739 mmHg 12%
    21:00 +35°C° 0 mm 3 mps 739 mmHg 12%
    22:00 +34°C° 0 mm 3 mps 739 mmHg 13%
    23:00 +33°C° 0 mm 3 mps 739 mmHg 14%

    2 Junio, Martes

    Tiempo Temperatura Precipitaciones Viento Presión Humedad
    00:00 +33°C° 0 mm 4 mps 739 mmHg 14%
    01:00 +33°C° 0 mm 4 mps 739 mmHg 15%
    02:00 +31°C° 0 mm 3 mps 739 mmHg 16%
    03:00 +30°C° 0 mm 3 mps 739 mmHg 17%
    04:00 +29°C° 0 mm 3 mps 739 mmHg 18%
    05:00 +32°C° 0 mm 2 mps 739 mmHg 16%
    06:00 +35°C° 0 mm 2 mps 740 mmHg 14%
    07:00 +37°C° 0 mm 1 mps 740 mmHg 11%
    08:00 +39°C° 0 mm 2 mps 740 mmHg 10%
    09:00 +40°C° 0 mm 2 mps 740 mmHg 9%
    10:00 +42°C° 0 mm 3 mps 740 mmHg 8%
    11:00 +43°C° 0 mm 3 mps 740 mmHg 8%
    12:00 +43°C° 0 mm 4 mps 740 mmHg 8%
    13:00 +44°C° 0 mm 4 mps 739 mmHg 7%
    14:00 +43°C° 0 mm 4 mps 739 mmHg 7%
    15:00 +43°C° 0 mm 4 mps 739 mmHg 7%
    16:00 +43°C° 0 mm 4 mps 739 mmHg 7%
    17:00 +42°C° 0 mm 4 mps 739 mmHg 8%
    18:00 +39°C° 0 mm 3 mps 739 mmHg 10%
    19:00 +37°C° 0 mm 3 mps 738 mmHg 11%
    20:00 +36°C° 0 mm 3 mps 739 mmHg 11%
    21:00 +36°C° 0 mm 3 mps 739 mmHg 11%
    22:00 +35°C° 0 mm 3 mps 739 mmHg 11%
    23:00 +34°C° 0 mm 3 mps 739 mmHg 11%

    3 Junio, Miércoles

    Tiempo Temperatura Precipitaciones Viento Presión Humedad
    00:00 +34°C° 0 mm 3 mps 738 mmHg 12%
    01:00 +33°C° 0 mm 3 mps 738 mmHg 12%
    02:00 +31°C° 0 mm 2 mps 738 mmHg 13%
    03:00 +30°C° 0 mm 2 mps 738 mmHg 14%
    04:00 +29°C° 0 mm 1 mps 738 mmHg 15%
    05:00 +32°C° 0 mm 1 mps 738 mmHg 14%
    06:00 +34°C° 0 mm 1 mps 739 mmHg 12%
    07:00 +37°C° 0 mm 1 mps 739 mmHg 10%
    08:00 +39°C° 0 mm 1 mps 739 mmHg 9%
    09:00 +41°C° 0 mm 1 mps 739 mmHg 9%
    10:00 +42°C° 0 mm 1 mps 738 mmHg 8%
    11:00 +42°C° 0 mm 1 mps 738 mmHg 8%
    12:00 +43°C° 0 mm 1 mps 738 mmHg 7%
    13:00 +45°C° 0 mm 2 mps 737 mmHg 7%
    14:00 +45°C° 0 mm 2 mps 737 mmHg 7%
    15:00 +45°C° 0 mm 2 mps 737 mmHg 7%
    16:00 +45°C° 0 mm 3 mps 736 mmHg 7%
    17:00 +42°C° 0 mm 2 mps 736 mmHg 8%
    18:00 +40°C° 0 mm 2 mps 736 mmHg 9%
    19:00 +38°C° 0 mm 2 mps 736 mmHg 11%
    20:00 +37°C° 0 mm 2 mps 736 mmHg 12%
    21:00 +36°C° 0 mm 2 mps 736 mmHg 13%
    22:00 +35°C° 0 mm 2 mps 736 mmHg 14%
    23:00 +35°C° 0 mm 3 mps 736 mmHg 15%

    4 Junio, Jueves

    Tiempo Temperatura Precipitaciones Viento Presión Humedad
    00:00 +34°C° 0 mm 3 mps 736 mmHg 16%
    01:00 +34°C° 0 mm 3 mps 736 mmHg 17%
    02:00 +33°C° 0 mm 3 mps 736 mmHg 17%
    03:00 +31°C° 0 mm 3 mps 736 mmHg 18%
    04:00 +31°C° 0 mm 3 mps 736 mmHg 18%
    05:00 +34°C° 0 mm 4 mps 736 mmHg 17%
    06:00 +36°C° 0 mm 4 mps 736 mmHg 15%
    07:00 +37°C° 0 mm 5 mps 736 mmHg 14%
    08:00 +40°C° 0 mm 4 mps 737 mmHg 12%
    09:00 +42°C° 0 mm 4 mps 737 mmHg 10%
    10:00 +44°C° 0 mm 3 mps 737 mmHg 9%
    11:00 +44°C° 0 mm 4 mps 737 mmHg 8%
    12:00 +46°C° 0 mm 5 mps 736 mmHg 8%
    13:00 +46°C° 0 mm 5 mps 736 mmHg 8%
    14:00 +46°C° 0 mm 6 mps 736 mmHg 8%
    15:00 +46°C° 0 mm 6 mps 736 mmHg 8%
    16:00 +46°C° 0 mm 6 mps 736 mmHg 9%
    17:00 +44°C° 0 mm 6 mps 736 mmHg 10%
    18:00 +42°C° 0 mm 5 mps 736 mmHg 11%
    19:00 +40°C° 0 mm 5 mps 736 mmHg 13%
    20:00 +39°C° 0 mm 6 mps 736 mmHg 14%
    21:00 +38°C° 0 mm 7 mps 736 mmHg 15%
    22:00 +37°C° 0 mm 8 mps 737 mmHg 16%
    23:00 +35°C° 0 mm 7 mps 737 mmHg 17%
    Mostrar más